Weather observations for the past three days for
Tucson, Tucson International Airport
Metric (Imperial)
Date Time (mst) Wind (kph) Vis. (km) Weather Sky Cond. Temperature (ºC) Relative Humidity Wind Chill (°C) Heat Index (°C) Pressure Precipitation (cm)
Air Dwpt 6 hour altimeter (cm) sea level (mb) 1 hr 3 hr 6 hr
Max. Min.
13 04:53 SE 15 16.09 Fair CLR 27.2 10.6 34.4 27.2 35% 27 76.25 1010.8
13 03:53 SE 13 16.09 Fair CLR 27.8 9.4 32% 27 76.23 1010.2
13 02:53 SE 13 16.09 Fair CLR 28.9 6.7 25% 28 76.17 1009.7
13 01:53 S 11 16.09 Fair CLR 29.4 10 30% 28 76.17 1009.7
13 00:53 S 6 16.09 Fair CLR 30 10 29% 29 76.2 1010.0
12 23:53 SE 9 16.09 Fair CLR 32.2 8.3 23% 30 76.17 1009.6
12 22:53 SE 9 16.09 Fair CLR 33.3 10.6 41.7 33.3 25% 32 76.17 1009.5
12 21:53 SE 6 16.09 Fair CLR 34.4 10.6 23% 33 76.15 1009.1
12 20:53 SW 9 16.09 Fair CLR 35 10 22% 33 76.07 1008.2
12 19:53 W 20 16.09 Fair CLR 37.2 10 19% 35 75.97 1007.1
12 18:53 Calm 16.09 Fair CLR 39.4 7.8 15% 37 75.92 1006.2
12 17:53 S 20 G 31 16.09 Fair CLR 40.6 7.8 14% 38 75.9 1006.1
12 16:53 S 17 16.09 Fair CLR 41.7 7.8 42.8 36.1 13% 39 75.9 1005.8
12 15:53 E 11 16.09 Fair CLR 41.7 7.2 12% 39 75.95 1006.5
12 14:53 E 17 16.09 Fair CLR 41.1 8.9 14% 39 76 1007.2
12 13:53 W 9 16.09 Fair CLR 41.1 10 15% 39 76.07 1008.2
12 12:53 Calm 16.09 Fair CLR 40 10.6 17% 39 76.15 1009.2
12 11:53 E 9 16.09 Fair CLR 38.3 11.1 19% 37 76.2 1010.1
12 10:53 N 9 16.09 Fair CLR 36.1 12.8 36.7 25.6 24% 35 76.25 1010.9
12 09:53 NW 13 16.09 Fair CLR 35 11.7 24% 34 76.25 1011.0
12 08:53 W 7 16.09 Fair CLR 32.8 12.2 28% 32 76.28 1011.5
12 07:53 SW 9 16.09 Fair CLR 29.4 13.9 39% 29 76.25 1011.7
12 06:53 SE 15 16.09 Fair CLR 27.8 13.9 43% 28 76.23 1011.2
12 05:53 SE 17 16.09 Fair CLR 25.6 14.4 50% 26 76.2 1011.6
12 04:53 SE 13 16.09 Fair CLR 25.6 15.6 28.9 25 54% 26 76.17 1009.8
12 03:53 S 11 16.09 Fair CLR 25.6 16.7 58% 26 76.15 1009.6
12 02:53 S 9 16.09 Fair CLR 26.1 16.1 54% 27 76.17 1009.6
12 01:53 SE 13 16.09 Fair CLR 27.2 16.1 51% 28 76.2 1009.9
12 00:53 SE 11 16.09 Fair CLR 28.3 15.6 46% 28 76.23 1010.4
11 23:53 NE 6 16.09 Fair CLR 28.9 15 43% 29 76.2 1010.1
11 22:53 E 6 16.09 Fair CLR 28.3 16.1 40.6 23.9 48% 29 76.17 1009.7 0.23
11 21:53 Vrbl 6 16.09 Fair CLR 28.9 16.1 46% 29 76.17 1009.7
11 20:53 S 11 16.09 Fair CLR 28.3 16.7 49% 29 76.15 1009.4
11 19:53 SE 41 G 61 16.09 Fair and Breezy CLR 28.9 15 43% 29 76.07 1008.7 0.08 0.23
11 18:53 E 20 G 52 9.66 Rain FEW075 OVC110 31.7 10.6 27% 30 76.33 1012.0 0.05
11 17:53 N 24 G 43 12.87 Thunderstorm Light Rain FEW060 FEW070 SCT120 24.4 17.8 67% 25 76.23 1011.5 0.1
11 16:52 NE 30 G 41 16.09 Thunderstorm CLR 40.6 9.4 43.3 38.9 15% 39 75.87 1005.2
11 15:53 NW 19 G 31 16.09 Fair CLR 42.8 8.9 13% 41 75.87 1005.0
11 14:53 W 15 16.09 Fair CLR 42.2 9.4 14% 40 75.95 1006.2
11 13:53 W 9 16.09 Fair CLR 41.7 10 15% 40 76.02 1007.2
11 12:53 Calm 16.09 Fair CLR 40.6 10.6 16% 39 76.1 1008.4
11 11:53 W 7 16.09 Fair CLR 39.4 10 17% 38 76.15 1009.3
11 10:53 N 17 16.09 Fair CLR 38.9 10.6 39.4 28.9 18% 37 76.2 1009.9
11 09:53 NW 6 8.05 Fair with Haze CLR 37.2 11.1 21% 36 76.23 1010.4
11 08:53 E 9 6.44 Smoke CLR 35.6 10.6 22% 34 76.25 1010.5
11 07:53 SE 11 6.44 Overcast with Haze OVC016 33.3 10.6 25% 32 76.28 1010.7
11 06:53 SE 17 4.83 Overcast with Haze OVC017 31.7 10.6 27% 30 76.25 1010.6
11 05:53 S 11 12.87 Fair CLR 29.4 11.7 33% 28 76.2 1010.0
11 04:53 S 11 9.66 Overcast with Haze OVC016 30.6 10.6 32.2 30.6 29% 29 76.17 1009.4
11 03:53 E 13 16.09 Fair CLR 31.7 10.6 27% 30 76.15 1008.9
11 02:53 E 7 16.09 Fair CLR 30.6 12.2 32% 30 76.12 1008.7
11 01:53 SE 15 16.09 Fair CLR 31.7 12.2 30% 31 76.15 1009.0
11 00:53 S 24 16.09 Fair CLR 31.1 12.8 33% 30 76.12 1008.9
10 23:53 SE 20 16.09 Fair CLR 31.7 13.9 34% 31 76.1 1008.7
10 22:53 E 15 16.09 Fair CLR 31.7 13.9 42.8 31.7 34% 31 76.12 1009.1
10 21:53 S 19 16.09 Fair CLR 32.8 12.2 28% 32 76.07 1008.3
10 20:53 S 35 G 46 16.09 Fair and Breezy CLR 35 11.7 24% 34 76 1007.1
10 19:53 E 11 16.09 Fair CLR 37.8 7.2 15% 36 75.9 1005.9
10 18:53 SE 24 16.09 Fair CLR 39.4 8.3 15% 37 75.9 1005.9
10 17:53 N 19 G 30 16.09 Fair CLR 42.8 10 14% 41 75.84 1004.9
10 16:53 N 20 16.09 Fair CLR 42.2 10.6 43.3 36.7 15% 41 75.84 1004.9
10 15:53 N 19 G 37 16.09 Fair CLR 42.2 10.6 15% 41 75.9 1005.8
10 14:53 W 20 G 37 16.09 Fair CLR 42.2 10.6 15% 41 76 1006.9
10 13:53 N 15 16.09 Fair CLR 41.7 11.7 17% 41 76.07 1007.8
10 12:53 NW 13 16.09 Fair CLR 40.6 11.1 17% 39 76.12 1008.6
10 11:53 SW 7 16.09 Fair CLR 38.9 11.7 19% 38 76.17 1009.5
10 10:53 Vrbl 6 16.09 Fair CLR 37.2 11.7 37.8 28.3 21% 36 76.23 1010.2
10 09:53 Vrbl 6 16.09 Fair CLR 36.7 11.7 22% 35 76.25 1010.5
10 08:53 N 7 16.09 Fair CLR 35 10.6 23% 33 76.28 1010.8
10 07:53 S 6 16.09 Fair CLR 31.7 10 26% 30 76.25 1011.0
10 06:53 SE 17 16.09 Fair CLR 29.4 10 30% 28 76.25 1010.5
10 05:53 E 17 16.09 Fair CLR 28.9 8.9 29% 28 76.17 1009.7
Date Time (mst) Wind (kph) Vis. (km) Weather Sky Cond. Air Dwpt Max. Min. Relative Humidity Wind Chill (°C) Heat Index (°C) altimeter (cm) sea level (mb) 1 hr 3 hr 6 hr
6 hour
Temperature (ºC) Pressure Precipitation (cm)